Regional Weather Roundup
Issued by NWS

Home | Current Version | Previous Version | Graphics & Text | Print | Product List | Glossary On
Versions: 1 2 3 4 5 6 7 8 9 10 11 12 13 14 15 16 17 18 19 20 21 22 23 24 25 26 27 28 29 30 31 32 33 34 35 36 37 38 39 40 41 42 43 44 45 46 47 48 49 50
000
ASUS43 KDTX 271910
RWRMI
MICHIGAN HOURLY REGIONAL WEATHER ROUNDUP
NATIONAL WEATHER SERVICE DETROIT/PONTIAC MI
200 PM EST FRI FEB 27 2015

NOTE: "FAIR" INDICATES FEW OR NO CLOUDS BELOW 12,000 FEET WITH NO
SIGNIFICANT WEATHER AND/OR OBSTRUCTION TO VISIBILITY.

MIZ047>049-052>055-059>063-066>070-074>076-081>083-272000-
SOUTHEAST LOWER MICHIGAN

CITY           SKY/WX    TMP DP  RH WIND       PRES   REMARKS
ADRIAN         SUNNY     13  -4  46 SW7       30.56F
ALMA           MOSUNNY   16   0  51 SW8       30.52F
ANN ARBOR      SUNNY     15  -2  46 W9        30.53F
BAD AXE        SUNNY     13   0  57 SW10      30.51F WCI  -1
DETROIT CITY   MOSUNNY   18   0  45 VRB5G18   30.54F
DETROIT        MOSUNNY   18  -1  43 W5        30.56F
FLINT          SUNNY     17  -1  45 NW8       30.53F
GROSSE ILE     SUNNY     16  -2  45 SW8       30.55S
HILLSDALE      SUNNY     15  -2  46 W9        30.52S
HOWELL         SUNNY     15  -4  43 W8        30.52S

CITY           SKY/WX    TMP DP  RH WIND       PRES   REMARKS
JACKSON        MOSUNNY   14  -3  47 W10       30.53S
LAMBERTVILLE   SUNNY     18  -2  41 W3        30.58S
LANSING        SUNNY     15  -2  46 SW9       30.54F
LAPEER         NOT AVBL
MASON          MOSUNNY   15  -3  43 W5        30.53S
MONROE         SUNNY     14  -2  48 W9        30.55F
MT. CLEMENS    MOSUNNY   13   3  64 SE9       30.52F
PONTIAC        MOSUNNY   16  -2  45 NW9       30.49F
PORT HOPE        N/A     11  -2  56 SW10G22   30.50F WCI  -3
PORT HURON     SUNNY     14  -2  48 W6        30.54F
TRI CITIES     SUNNY     15   1  53 SW13      30.52F
YPSILANTI      SUNNY     19  -2  39 NW5       30.55F
$$
MIZ043>046-050>051-056>058-064>065-071>073-077>080-272000-
SOUTHWEST LOWER MICHIGAN

CITY           SKY/WX    TMP DP  RH WIND       PRES   REMARKS
BATTLE CREEK   PTSUNNY   17  -1  45 SW12      30.53F
BENTON HARBOR  MOSUNNY   16   6  65 W15       30.58F
BIG RAPIDS     CLOUDY    17   3  54 W9G16     30.47F
COLDWATER      SUNNY     17  -3  41 W9        30.54F
HOLLAND        PTSUNNY   18   7  62 SW10      30.55F
GRAND RAPIDS   PTSUNNY   17   2  51 W14       30.53F
KALAMAZOO      CLOUDY    17   2  51 W13       30.54F
MARSHALL       SUNNY     15  -4  42 SW7       30.53F
MUSKEGON       PTSUNNY   18   4  54 NW9       30.55F
$$
MIZ016>042-272000-
NORTHERN LOWER MICHIGAN

CITY           SKY/WX    TMP DP  RH WIND       PRES   REMARKS
ALPENA         MIX PCPN  18   0  45 SW9       30.44F
BEAVER ISLAND  MOSUNNY   11   2  66 W16       30.45F WCI  -5
BELLAIRE       CLOUDY    16   3  57 SW7       30.48F
CADILLAC       PTSUNNY   15   1  54 W14       30.40F
CHARLEVOIX     SUNNY     12   3  67 SW15      30.49F WCI  -4
FRANKFORT      CLOUDY    15   5  63 SW10      30.50F
GAYLORD        MOSUNNY   12   0  58 W13G18    30.39F WCI  -3
GRAYLING       MOSUNNY   16   1  52 W10G17    30.43S
HARBOR SPRINGS SUNNY     13   2  62 W8G16     30.46S
HOUGHTON LAKE  MOSUNNY   15   1  53 SW7       30.43F
MANISTEE       PTSUNNY   16   1  53 W15       30.51F
OSCODA         MOSUNNY   18   0  46 SW6       30.46F
PELLSTON       SUNNY     12   1  61 W14       30.45F WCI  -3
TRAVERSE CITY  PTSUNNY   16   4  59 W15G25    30.47F
$$
MIZ007>008-015-272000-
EASTERN UPPER MICHIGAN

CITY           SKY/WX    TMP DP  RH WIND       PRES   REMARKS
KINROSS        SUNNY     18   1  49 SW8       30.39F
MACKINAC ISLAN PTSUNNY   11   3  71 W13       30.44F WCI  -4
NEWBERRY       SUNNY     12  -2  53 W8        30.39F
S. S. MARIE    SUNNY     14  -1  51 VRB7      30.40F
$$
MIZ004>006-011>014-085-272000-
CENTRAL UPPER MICHIGAN

CITY           SKY/WX    TMP DP  RH WIND       PRES   REMARKS
MANISTIQUE     SUNNY     13  -1  51 S8        30.43F
ESCANABA       SUNNY     16  -9  32 W9        30.45S
MENOMINEE      SUNNY     16  -4  41 W8        30.45F
SAWYER-GWINN   SUNNY     16  -4  41 SW6       30.35F
$$
MIZ001>003-009>011-084-272000-
WESTERN UPPER MICHIGAN

CITY           SKY/WX    TMP DP  RH WIND       PRES   REMARKS
IRON MOUNTAIN  SUNNY     16  -4  41 W7        30.37F
HOUGHTON       SUNNY      9  -3  58 W17G28    30.36F WCI  -9
COPPER HARBOR    N/A     13   2  61 N18       30.37F WCI  -4
IRONWOOD       SUNNY     12  -4  48 W14       30.37F WCI  -3
$$

ABBREVIATIONS USED IN REMARKS
   TC - TEMPERATURE IN CELSIUS
  WCI - WIND CHILL INDEX
   HX - HEAT INDEX
  VSB - VISIBILITY



USA.gov is the U.S. government's official web portal to all federal, state and local government web resources and services.